Theta_e
333 333 326 323 326 321 316 314 299 303 303 297 299 300 299 305 305 305 307 314 308 327 328 331 322 318 315 316 318 325 330 321 326 316 316 334 348 348 349 349 350 350 351 353 355 354 356 355 354 354 354 354 354 354 354 354 354 355 354 354 354 354 353 353 352 351 351 351 351 352 352 351 351 351 350 350 350 351 350 349 348 348 348 348 348 347 348 347 348 347 348 347 347 348 347 346 345
327 324 322 321 322 317 309 313 302 301 299 297 299 302 303 305 305 306 310 315 321 327 332 331 331 327 327 330 328 325 323 336 338 334 339 345 348 346 350 350 350 350 352 353 352 352 354 355 353 354 354 353 354 354 354 354 354 354 354 354 354 353 353 352 352 351 351 351 351 351 351 351 350 350 350 350 351 351 351 350 348 348 349 348 348 347 347 347 348 347 347 347 348 347 346 345 344
321 319 318 323 320 316 314 309 297 298 296 294 299 302 306 303 304 309 317 323 327 330 332 331 331 329 325 325 325 325 327 338 338 340 339 346 341 344 349 351 351 353 354 355 353 353 354 354 353 353 353 353 353 354 354 354 354 354 354 353 353 353 352 352 352 352 352 351 351 352 351 351 350 350 350 350 351 352 351 350 349 349 349 348 348 347 346 347 347 347 347 347 348 347 346 346 345
323 320 318 318 309 313 305 303 299 298 296 298 298 303 303 303 306 306 312 325 328 329 330 328 325 332 331 324 330 333 333 334 339 340 338 342 345 347 349 351 354 353 353 352 351 352 354 354 353 353 353 353 353 353 353 353 353 353 353 353 352 352 352 352 351 351 351 351 351 352 352 352 351 351 351 350 351 351 350 350 350 349 348 348 347 346 346 347 347 347 347 348 348 347 346 345 344
318 317 318 316 311 302 304 302 299 299 295 299 298 302 303 304 306 305 307 309 315 325 328 327 327 333 335 334 333 329 332 339 338 342 341 346 349 349 351 353 354 353 351 351 351 352 353 352 353 352 352 353 353 353 353 353 352 352 352 352 351 351 351 351 351 351 351 352 352 352 351 351 350 350 350 351 351 351 350 350 351 351 350 349 349 348 347 347 347 347 347 347 347 347 345 344 345
315 316 318 316 307 312 306 300 298 298 301 303 301 302 305 305 304 306 307 309 310 312 319 326 321 326 330 335 336 334 340 330 340 340 344 343 348 351 352 354 353 351 350 352 352 353 354 354 353 352 352 353 353 352 352 352 351 351 351 351 351 351 351 350 351 352 352 352 351 351 350 350 350 351 349 351 351 351 350 351 351 351 351 351 349 348 347 346 346 346 346 347 347 345 345 345 345
312 313 311 311 309 308 299 298 297 298 301 304 302 303 304 305 306 306 307 307 310 315 320 323 327 326 323 332 336 340 344 342 341 341 346 347 351 352 352 352 352 350 351 351 353 353 354 352 352 352 352 352 352 352 352 352 352 352 352 351 351 351 351 351 352 352 352 351 351 351 351 350 349 349 349 350 350 351 351 350 350 350 349 350 349 347 346 346 346 346 347 347 346 346 346 346 346
319 310 307 303 301 301 298 300 299 301 302 304 305 304 305 306 306 306 306 305 309 310 320 323 327 323 330 337 329 339 344 345 346 349 348 349 351 352 352 351 349 349 350 352 353 354 354 351 352 352 353 353 352 352 352 352 352 352 352 352 352 352 352 352 352 352 351 351 350 351 350 350 349 348 349 345 348 348 349 348 347 348 349 348 348 347 346 346 347 348 348 347 346 346 345 345 345
314 311 312 306 300 301 298 298 300 303 303 304 304 306 312 307 307 306 306 307 307 309 321 323 327 320 327 332 332 338 342 346 348 350 349 349 350 352 352 351 349 348 349 350 353 355 354 351 351 352 352 353 352 352 352 352 352 352 353 353 353 352 352 352 352 352 352 351 350 350 349 349 349 349 347 347 347 347 347 347 348 348 347 348 348 347 347 346 347 347 346 346 346 346 345 345 344
310 310 300 301 302 297 297 298 298 301 302 304 304 305 306 308 308 308 306 306 307 309 318 325 329 320 329 331 332 337 340 346 348 347 347 349 351 353 351 351 351 350 350 350 353 353 353 352 351 352 351 352 352 352 352 352 352 352 353 352 351 351 351 351 351 352 351 351 351 351 351 349 349 347 345 345 343 346 347 347 348 347 347 347 347 347 347 346 346 346 345 345 345 345 345 344 343
304 307 310 300 298 296 296 297 299 302 302 304 305 307 308 311 310 308 307 307 309 309 326 329 324 327 326 332 335 342 345 347 346 343 346 349 351 350 350 350 351 353 350 353 354 353 351 352 353 351 351 351 352 352 351 352 351 351 351 351 351 351 351 351 351 351 351 350 351 351 350 350 348 347 343 342 343 347 348 349 348 347 346 346 347 346 346 345 345 345 344 344 344 345 345 343 342
304 301 303 297 297 297 298 298 299 301 302 303 304 307 314 315 314 310 308 305 307 313 324 326 322 330 327 331 333 340 343 344 346 346 347 349 348 350 350 350 353 353 355 355 354 352 349 351 350 353 351 351 351 351 351 352 351 351 350 351 350 351 351 351 351 351 350 351 351 350 350 349 349 348 345 345 346 347 349 348 347 347 346 346 347 346 346 345 345 344 344 343 343 343 344 343 342
306 304 301 298 298 299 300 298 299 300 301 302 303 306 313 317 315 317 313 308 308 317 322 327 332 330 326 327 337 340 339 343 346 347 347 348 347 348 350 352 353 354 350 350 353 351 349 346 350 350 352 352 351 351 351 351 350 350 350 350 351 350 351 351 351 351 351 351 350 350 349 349 348 347 347 348 348 348 347 345 346 345 344 346 346 345 345 344 343 343 344 343 343 342 342 343 342
305 306 303 297 303 300 299 299 300 298 299 304 305 306 313 320 322 319 309 306 308 318 328 334 332 332 329 334 333 335 338 342 345 347 347 347 348 348 352 352 351 351 352 350 346 348 348 346 346 349 352 353 354 352 350 350 350 349 350 350 350 350 350 350 350 349 350 350 349 348 349 348 349 348 348 348 348 348 347 346 345 344 345 346 346 345 343 342 342 342 342 343 343 342 342 342 342
306 309 304 301 300 300 301 297 299 298 300 304 304 306 308 321 324 323 314 311 320 334 334 337 336 329 325 324 328 335 338 341 344 346 345 346 347 348 350 349 347 347 347 349 349 347 346 347 347 347 350 348 354 352 351 352 349 349 350 349 350 350 350 350 349 349 349 349 348 349 349 349 350 349 348 348 347 347 347 346 345 345 346 345 345 344 342 340 341 341 341 342 343 342 342 342 341
309 307 303 299 298 298 300 299 301 299 301 305 305 307 307 317 324 324 322 330 328 334 332 327 335 329 329 328 331 340 340 342 344 345 344 344 345 345 346 346 347 345 343 342 341 345 347 347 347 345 347 349 349 352 350 351 347 349 350 350 349 347 344 344 342 349 348 348 349 349 349 350 349 350 348 349 347 346 346 346 345 345 345 345 345 343 342 341 341 341 341 341 341 341 341 341 341
310 307 300 299 297 298 300 300 300 297 303 305 306 306 304 309 323 329 332 332 325 329 332 333 332 336 334 336 341 341 342 343 343 343 342 341 341 341 343 345 345 338 336 343 343 345 343 345 345 347 347 350 347 348 350 349 349 349 349 347 347 346 346 347 347 348 348 349 349 348 347 351 353 352 349 349 348 349 346 345 345 345 345 345 345 343 342 340 339 340 340 340 339 339 340 339 339
307 300 299 298 299 299 302 301 302 304 303 304 305 305 305 304 313 327 333 330 329 330 331 332 336 335 339 340 342 342 342 340 340 339 338 337 339 338 339 341 339 335 339 341 344 346 346 348 346 345 344 345 352 350 349 349 347 349 350 348 348 348 348 348 349 346 348 351 348 349 354 353 353 351 350 348 348 348 347 345 345 346 345 345 344 344 343 342 341 340 339 337 336 337 337 339 338
302 301 300 297 301 302 304 304 305 304 303 305 305 305 305 304 306 322 322 321 326 325 329 331 332 334 337 339 339 340 340 338 338 337 336 337 338 338 338 338 339 339 340 343 346 346 348 348 346 343 344 344 349 348 350 350 351 351 350 349 348 347 349 349 346 347 352 349 344 350 351 352 351 351 349 347 342 340 345 345 345 344 344 344 345 344 343 342 342 341 341 339 339 337 341 338 339
305 302 299 300 304 304 304 305 304 305 305 304 304 305 305 305 306 312 314 316 320 319 323 327 328 330 333 336 338 339 339 337 338 336 336 337 338 338 337 337 337 340 340 342 344 347 347 346 345 344 345 347 344 347 350 344 348 351 348 348 347 345 346 345 349 350 350 351 351 352 351 351 352 353 345 344 343 343 345 342 342 342 343 343 344 344 344 343 342 341 341 340 341 341 341 339 337
305 302 300 301 304 302 304 305 305 306 305 304 305 305 305 305 308 309 312 313 314 314 316 317 323 331 333 335 336 339 337 336 336 337 338 337 337 339 338 338 339 340 341 344 345 345 346 346 346 347 349 349 348 348 349 347 341 344 346 346 343 346 346 348 349 349 350 350 349 349 348 350 350 349 349 347 342 342 345 347 347 345 346 344 344 343 342 343 342 341 341 341 342 341 339 340 338
306 302 303 304 304 301 305 305 306 305 305 304 304 303 303 307 309 309 310 310 309 314 320 324 328 334 335 335 335 337 336 337 337 337 338 339 338 337 338 338 341 342 342 342 343 344 345 345 344 344 347 346 346 341 342 343 341 340 341 345 342 342 346 346 347 347 347 347 346 347 349 350 349 347 347 343 342 341 344 345 346 348 346 347 344 343 343 344 345 343 340 339 339 341 340 341 339
300 304 304 305 305 302 305 305 305 304 305 304 303 305 306 305 304 306 308 312 316 322 324 324 330 335 338 338 336 336 335 336 337 337 337 336 336 337 337 339 339 338 341 343 344 344 343 343 344 345 344 344 344 342 342 343 341 343 343 342 342 345 345 345 344 346 346 346 349 350 349 347 347 345 343 343 344 346 345 347 346 346 346 345 347 345 345 346 345 342 341 340 340 339 339 338 338
302 301 304 304 305 303 305 305 305 305 304 303 305 306 303 304 302 307 306 311 318 323 322 322 332 336 338 335 335 336 336 336 336 338 337 335 336 337 338 339 340 340 341 343 343 343 343 342 343 343 345 345 343 343 341 348 342 341 342 343 342 343 344 344 346 346 348 347 349 349 349 347 345 342 343 343 344 346 345 346 346 343 343 344 346 345 345 344 342 342 342 339 338 339 338 338 337
301 300 303 304 304 305 305 306 305 305 305 306 305 303 304 305 304 305 305 312 321 324 325 329 333 336 337 336 335 337 337 337 336 336 336 335 337 338 339 340 339 339 336 339 339 339 340 341 343 343 343 339 342 343 341 341 341 344 345 344 344 342 345 344 345 347 347 347 349 348 348 347 344 342 339 339 343 345 344 345 344 344 345 344 345 345 344 343 343 341 340 338 337 337 337 338 335
302 302 304 304 303 305 305 305 305 304 305 305 303 303 305 305 305 304 306 321 327 329 329 331 333 333 334 335 336 337 337 337 336 335 334 334 336 336 335 336 336 335 333 336 339 339 341 341 340 341 340 340 344 344 342 343 345 344 344 346 346 345 344 345 346 345 347 347 347 348 347 345 343 340 340 339 341 344 344 345 345 343 344 345 345 344 345 345 342 340 338 338 337 338 337 337 335
305 303 304 303 304 304 305 303 304 305 304 305 302 303 304 304 303 302 317 325 327 329 329 331 333 333 334 333 335 337 336 335 335 335 333 333 333 334 336 336 335 333 335 336 338 338 341 338 338 340 341 345 343 341 343 342 343 343 344 344 344 346 344 344 345 347 347 347 347 348 346 345 345 343 341 340 340 342 344 344 344 345 343 344 345 344 345 344 343 340 340 341 342 342 337 335 334
302 303 303 302 303 303 304 304 303 305 303 305 304 303 303 304 304 303 320 328 329 327 329 330 331 333 332 332 334 336 336 334 334 333 331 331 331 334 336 334 335 335 335 336 338 341 339 338 337 340 342 344 343 339 341 341 342 343 346 344 344 345 344 344 345 346 346 346 347 347 346 344 344 343 341 340 340 342 343 343 343 344 343 343 344 343 344 344 343 341 342 344 345 343 339 336 336
302 302 298 300 302 301 303 302 303 304 303 305 305 302 300 302 301 307 322 327 329 327 327 328 331 331 332 332 333 333 332 332 333 332 331 333 335 337 336 337 336 334 336 338 339 340 339 340 337 339 341 343 342 340 338 341 343 342 344 343 344 345 345 346 345 345 345 346 347 347 345 343 342 340 343 342 341 341 342 343 341 342 342 341 344 344 343 345 344 344 343 343 342 342 339 337 334
303 302 300 299 299 299 302 304 304 302 303 304 304 294 298 301 304 313 326 325 327 326 326 328 330 332 331 331 332 332 332 332 332 332 332 334 336 335 336 338 338 335 336 339 340 340 340 340 341 341 341 339 341 340 341 340 342 342 344 343 345 346 345 345 345 345 346 344 345 345 344 342 341 340 340 341 342 340 340 340 340 340 341 341 343 343 341 342 340 341 341 340 338 338 339 337 335
297 300 301 297 296 296 303 303 303 301 304 303 304 295 299 302 305 317 324 326 323 322 325 327 329 330 331 330 332 331 331 331 332 333 333 336 336 336 337 339 338 340 336 337 338 340 341 341 342 340 342 342 341 341 340 342 344 343 342 343 344 344 345 345 346 346 344 345 345 343 343 341 340 341 339 339 340 339 339 339 339 339 337 340 342 344 342 340 343 339 340 339 342 340 340 338 337
300 296 294 297 296 298 301 303 303 299 302 304 302 296 298 303 308 320 325 325 321 319 323 326 329 329 330 329 331 331 330 332 332 333 334 336 337 336 339 339 341 339 340 339 339 340 340 341 343 343 344 344 343 343 344 344 344 345 345 342 344 345 343 342 344 345 344 344 344 343 342 339 339 341 341 340 340 340 338 337 338 338 340 337 337 341 339 336 336 336 337 339 339 338 338 337 338
299 296 296 295 296 297 298 301 303 304 302 303 301 296 300 301 307 319 323 323 321 319 322 327 328 328 328 329 330 330 328 330 331 332 333 336 338 339 339 339 338 340 341 340 339 340 341 342 341 344 343 343 345 345 345 345 345 344 344 343 343 344 342 341 340 342 341 342 344 341 341 341 341 341 341 340 341 340 338 338 338 341 341 339 336 339 337 336 336 332 336 341 341 338 335 333 335
295 297 295 298 295 296 296 301 303 303 302 300 302 299 300 304 307 318 322 322 321 318 322 326 327 327 328 327 329 329 329 329 329 332 334 336 337 338 340 337 339 340 341 340 341 340 339 342 341 340 344 343 345 343 343 343 343 343 342 342 343 341 340 339 339 339 339 339 343 342 342 342 341 339 341 341 341 341 340 339 340 341 340 340 339 339 334 335 335 336 339 340 338 337 333 334 336
294 295 295 296 297 298 297 297 301 303 303 301 301 300 300 303 310 317 320 322 320 320 322 326 326 326 326 326 327 328 328 328 330 333 334 335 338 337 338 339 339 339 339 341 342 343 343 338 342 341 344 343 343 342 343 343 342 342 342 342 340 339 339 339 339 337 338 340 341 342 340 341 341 341 340 340 340 339 339 339 339 340 341 340 339 338 337 337 338 340 339 338 340 339 338 338 339
296 297 296 296 295 295 296 301 303 303 301 300 300 299 300 302 306 316 320 322 321 322 325 326 326 325 325 325 326 328 328 329 332 333 335 336 337 337 337 338 338 338 340 341 341 339 330 324 329 331 341 340 340 342 341 340 340 340 336 337 336 335 337 336 339 337 338 338 338 338 338 339 338 339 340 341 340 339 339 339 339 339 339 338 337 336 335 336 338 338 338 337 339 339 339 340 339
298 297 297 296 297 298 299 301 302 303 301 300 301 301 301 302 306 316 321 322 321 322 323 325 325 324 323 324 325 326 328 330 332 333 334 336 337 336 337 338 338 338 340 342 340 334 332 329 332 333 337 340 340 339 338 338 337 336 336 334 333 335 334 335 335 336 336 335 336 335 336 335 337 337 336 339 341 339 339 338 338 338 338 337 336 336 337 337 339 340 337 339 337 336 336 338 338
297 297 296 296 296 296 300 300 301 304 302 300 303 302 301 303 309 317 320 320 319 320 321 324 324 324 323 323 325 326 329 331 331 332 333 334 335 336 337 336 336 336 337 339 342 334 332 332 336 334 334 343 342 341 340 339 337 336 334 333 332 332 332 331 331 335 336 336 337 336 336 336 337 336 336 336 336 336 337 337 338 337 336 337 338 338 338 336 337 337 337 336 337 335 335 337 337
298 297 296 296 297 299 301 300 303 304 303 300 301 299 301 303 309 316 318 319 320 322 323 323 324 323 323 323 325 326 328 329 330 331 333 334 335 336 335 335 336 337 337 340 340 332 332 330 334 335 340 342 341 342 341 338 339 339 336 335 334 333 335 335 332 332 332 330 334 334 336 336 334 334 335 335 335 334 334 334 335 336 337 337 337 337 338 337 337 335 336 335 334 336 335 338 337
297 296 296 294 298 296 294 302 303 303 302 302 302 299 303 306 312 315 318 319 321 323 323 324 325 325 324 324 325 326 327 327 328 329 331 333 335 336 336 335 336 336 337 337 334 331 332 329 324 327 336 341 341 341 340 340 340 341 341 340 337 335 333 335 334 333 331 330 329 331 333 335 334 333 332 331 332 334 334 332 333 333 334 336 335 336 336 336 336 336 336 335 335 331 331 333 337
298 299 297 296 297 297 298 299 303 303 302 303 300 300 302 305 305 312 318 321 321 322 323 323 325 326 327 327 327 328 327 328 328 330 331 333 333 334 336 336 336 335 337 338 334 332 330 328 325 324 326 336 339 340 340 339 339 340 340 340 339 336 335 332 330 328 330 329 328 329 330 333 333 332 333 332 331 332 333 334 333 333 333 334 333 332 334 335 336 337 338 336 335 332 328 331 334
296 300 300 300 300 299 298 301 300 299 299 303 300 293 294 302 304 306 314 316 316 320 321 321 323 325 326 325 326 328 329 329 329 331 332 332 332 334 336 336 335 335 335 338 339 332 329 329 330 329 331 332 336 338 339 337 336 334 332 329 327 328 328 327 325 326 326 327 324 328 329 330 331 332 331 331 331 331 333 334 334 331 332 333 332 331 332 332 333 333 336 338 335 334 332 330 330
296 297 302 301 300 300 300 299 299 295 293 299 303 294 290 300 301 307 312 313 314 318 319 321 322 324 324 325 326 326 327 327 330 331 332 332 333 334 335 335 334 334 334 338 339 334 336 335 337 337 334 334 335 337 336 336 335 334 333 331 330 328 327 329 329 330 328 326 328 328 327 330 330 332 332 332 332 333 332 332 333 332 332 332 332 332 331 331 330 331 334 335 335 335 334 329 329
295 304 302 301 300 299 300 300 299 297 302 302 301 299 293 292 299 309 312 310 312 315 317 319 321 324 324 326 327 328 328 328 328 329 331 332 334 334 334 334 335 334 335 336 338 338 338 339 339 340 335 336 337 337 337 337 335 335 334 332 330 329 329 329 330 330 330 328 326 327 327 327 328 330 331 331 331 330 331 330 332 332 330 329 328 329 329 330 331 332 334 335 335 335 334 330 329
299 303 302 300 300 301 300 299 299 299 298 294 297 300 294 293 299 304 308 306 310 312 315 318 320 322 325 327 326 328 330 330 329 328 330 332 334 334 333 333 333 334 333 335 336 338 339 341 341 341 336 338 339 339 338 338 337 336 336 332 329 330 329 329 328 328 327 328 327 327 326 325 327 331 331 331 330 329 329 330 330 330 330 328 327 327 328 329 331 332 332 335 334 334 334 333 331
303 303 303 302 302 301 301 299 298 298 294 290 295 299 292 292 298 300 304 305 306 309 313 317 319 321 323 325 327 329 329 331 330 330 330 331 324 321 325 330 332 332 333 335 336 338 339 340 340 339 336 338 339 339 338 338 338 337 336 332 331 329 329 328 327 326 326 327 326 326 325 325 326 329 331 330 330 328 329 330 329 329 329 328 327 326 328 329 330 331 334 335 334 333 333 332 330
303 303 300 300 300 300 300 300 298 296 288 292 297 299 296 289 296 298 298 301 306 307 308 310 313 317 321 325 326 327 328 329 329 329 329 325 324 325 324 326 328 331 333 335 334 332 333 332 330 332 333 336 337 338 338 337 337 336 334 333 332 330 329 328 326 326 325 326 325 324 323 325 327 327 328 330 329 328 328 329 328 327 328 327 325 325 328 327 328 329 329 330 330 330 331 330 332
302 300 298 298 297 299 297 297 298 288 287 294 298 298 298 287 293 300 305 306 308 309 309 309 310 311 311 316 322 325 327 328 329 328 324 322 324 327 328 326 327 329 331 329 326 328 328 326 323 322 324 327 328 328 332 336 335 335 335 334 333 332 331 328 327 325 324 324 324 322 322 324 326 327 327 326 327 327 327 327 328 327 326 327 327 328 328 327 327 326 326 327 327 329 330 330 333
300 300 298 292 289 290 286 291 285 287 286 295 298 297 294 293 301 303 306 308 310 312 312 313 313 312 315 313 316 323 326 327 328 328 325 322 324 326 328 327 327 328 326 324 324 325 327 328 325 323 324 326 327 325 326 329 333 333 334 334 333 333 330 328 326 325 325 322 322 322 322 322 323 323 323 323 324 326 325 325 325 324 324 326 328 328 327 327 325 323 324 324 325 325 326 328 326
298 297 295 291 287 285 281 286 289 289 294 298 297 299 292 297 301 307 307 309 311 314 315 315 314 315 316 314 313 319 325 326 327 326 325 323 325 327 328 328 327 325 324 325 325 325 326 325 324 323 323 325 325 323 323 325 329 332 334 334 333 332 330 329 326 325 324 322 322 322 322 321 321 323 323 323 324 323 324 325 326 326 326 326 326 327 326 326 326 321 322 323 323 324 325 325 324
298 300 297 294 291 288 281 286 283 285 289 294 298 293 289 291 294 305 308 312 314 315 315 316 316 315 316 314 316 321 322 325 324 325 324 323 326 329 328 327 327 326 329 328 327 326 325 323 322 324 323 324 324 324 323 324 328 331 332 334 333 332 330 328 325 325 324 323 323 322 322 322 322 322 322 324 325 325 326 325 324 324 324 326 325 326 325 325 325 321 322 322 322 323 322 322 323
300 300 301 295 292 297 288 290 291 289 289 289 292 291 297 297 304 307 311 313 314 315 315 317 316 317 317 317 318 320 322 322 323 323 323 325 327 330 327 325 325 326 329 329 329 328 326 324 324 325 325 324 325 324 326 326 330 331 332 333 334 333 330 329 326 326 325 324 323 321 322 322 323 323 324 325 325 325 325 324 323 323 322 323 323 324 323 323 324 321 320 322 321 320 321 321 320
298 298 293 296 302 298 291 290 297 289 289 287 294 294 297 303 303 306 309 311 312 314 315 316 316 317 319 318 318 319 321 321 323 323 325 326 328 329 327 325 325 325 327 329 331 329 328 327 325 325 328 327 326 326 327 329 331 331 332 333 333 332 330 328 325 326 327 326 324 322 321 322 324 325 325 326 326 326 325 324 324 323 323 322 322 322 322 323 323 322 320 320 319 319 319 318 319
299 293 297 301 303 301 294 286 288 287 284 286 293 289 293 293 289 303 305 309 311 312 313 315 317 318 316 317 318 318 319 321 322 324 326 326 325 325 326 326 326 327 328 330 329 331 329 328 328 326 327 327 327 328 328 329 330 331 331 332 332 332 330 328 327 327 327 326 324 323 323 322 323 324 325 326 326 326 325 324 324 324 324 323 322 321 320 321 321 319 320 320 320 320 319 319 319
298 296 304 294 288 288 295 290 282 283 282 285 289 292 293 294 294 299 301 305 309 310 313 314 314 315 315 315 317 318 320 321 322 322 322 322 323 323 324 326 326 328 330 330 330 330 329 328 329 328 327 326 326 326 327 328 329 330 330 331 331 331 331 329 327 327 327 326 324 325 324 323 324 324 323 324 324 323 324 324 324 324 324 323 322 322 322 321 320 320 319 319 321 320 318 318 319
300 301 299 301 298 293 289 290 291 290 284 284 285 291 287 296 297 300 303 308 309 310 312 312 313 314 315 315 316 317 319 319 319 320 320 321 321 323 322 323 323 324 325 326 327 327 327 327 325 326 326 326 326 325 326 326 327 328 329 330 330 329 329 328 327 328 327 326 325 324 324 325 325 323 323 323 322 322 322 323 323 323 323 323 322 323 323 322 321 321 320 318 320 320 317 317 317
295 296 295 296 297 300 298 297 292 289 286 286 285 284 290 297 302 304 305 307 310 311 311 313 313 314 314 315 316 317 319 318 319 319 319 319 320 321 321 323 323 324 325 327 326 323 322 324 325 324 324 324 325 325 325 326 327 327 328 328 329 329 329 329 329 329 327 329 327 323 322 323 324 324 324 323 321 321 320 321 321 322 322 323 322 323 324 324 322 321 319 319 319 318 316 316 316
297 296 294 295 293 291 287 286 296 293 289 285 285 284 292 300 304 304 305 306 307 309 312 312 314 314 314 315 317 318 318 320 321 320 321 320 320 320 321 321 322 323 324 325 327 326 324 324 324 323 323 324 325 325 325 326 326 327 328 329 330 330 330 330 330 328 328 329 327 325 326 326 326 326 325 322 321 322 321 321 320 321 322 322 322 322 323 324 322 322 322 322 320 318 316 316 318
Wind_Speed
5 5 1 4 4 5 6 6 7 7 6 9 10 7 2 0 1 4 2 1 7 4 2 2 6 5 6 1 3 2 7 5 7 5 2 3 4 12 12 15 17 18 17 16 15 15 15 15 16 16 16 16 16 17 17 18 17 16 17 17 17 17 17 17 17 17 16 17 16 15 15 15 14 13 13 13 13 12 12 13 12 12 12 12 12 12 11 11 11 11 11 11 11 11 11 11 11
4 2 3 4 6 7 6 6 6 6 8 9 9 8 6 7 5 1 4 4 6 4 2 2 2 3 2 3 3 3 2 9 10 8 5 5 8 10 12 16 19 19 16 16 14 14 15 15 15 15 16 18 17 17 17 17 17 16 17 16 17 17 17 17 17 17 16 15 15 15 15 15 14 13 13 12 11 11 12 12 13 12 12 12 12 12 12 12 11 11 11 11 11 11 11 11 11
4 4 5 5 5 7 1 5 7 7 8 9 8 9 7 6 4 5 6 5 5 4 2 4 4 2 5 3 6 4 5 5 9 8 7 7 11 9 14 16 17 17 17 15 15 14 13 15 15 15 16 17 17 18 18 17 17 17 16 16 17 17 16 16 15 15 14 14 14 14 14 14 13 13 12 11 10 9 9 12 13 14 13 12 12 12 11 12 11 11 11 11 11 12 12 12 12
2 4 5 7 7 6 6 6 9 7 8 7 7 8 6 5 6 6 5 4 4 2 3 5 3 3 4 6 4 1 6 6 9 8 8 8 7 13 13 16 17 14 14 13 15 15 13 16 14 15 15 16 16 19 20 20 18 18 16 16 16 17 16 15 15 14 14 14 13 13 13 13 12 12 12 11 8 8 9 9 12 13 13 12 12 11 11 11 11 11 11 11 11 12 12 12 12
5 5 5 7 5 7 7 6 8 7 9 6 6 7 3 5 4 2 2 1 2 4 4 2 4 2 3 6 2 2 6 8 6 4 7 7 11 12 14 16 15 14 14 15 14 14 15 19 15 15 15 16 17 19 19 18 18 17 16 16 17 16 16 15 15 14 14 14 13 13 13 13 13 13 12 10 8 8 8 9 9 11 10 9 9 10 11 10 11 11 11 11 11 12 12 12 11
5 5 5 5 5 5 6 6 8 10 9 5 6 5 7 5 3 4 4 3 5 5 6 5 3 4 4 4 4 2 5 1 6 6 7 8 13 13 15 14 14 13 14 14 14 13 16 17 16 15 15 16 16 17 18 19 19 18 17 17 17 17 16 15 15 14 14 14 13 14 13 13 13 13 12 10 9 9 9 10 12 11 11 10 10 11 10 10 10 10 10 11 12 13 12 11 10
7 6 6 7 4 5 7 9 9 9 7 4 3 6 1 4 4 5 4 4 4 4 5 6 5 4 6 6 7 7 5 1 3 7 6 13 14 14 15 13 13 14 14 13 12 14 20 17 16 15 15 16 16 17 18 18 19 18 18 17 17 16 16 14 13 13 14 14 14 14 13 13 14 12 11 10 10 9 10 11 12 12 12 10 9 9 10 9 9 10 11 11 12 13 11 10 9
3 7 7 8 6 6 9 9 9 7 5 4 3 6 6 7 6 5 4 6 5 7 8 6 6 7 9 5 1 6 5 2 7 10 13 12 13 14 13 13 13 14 14 12 13 15 19 16 15 16 15 16 18 18 18 18 19 18 18 17 16 15 15 14 13 12 12 13 14 13 13 13 13 11 10 9 7 11 10 12 13 13 12 11 10 10 9 9 9 9 11 11 11 12 10 10 9
7 6 2 7 8 6 8 9 8 5 4 2 3 1 4 6 7 7 8 5 3 6 6 8 6 9 7 8 7 7 5 5 8 12 12 13 13 13 9 12 13 12 13 13 14 16 17 16 15 16 17 17 17 17 17 17 16 17 17 16 15 14 14 14 14 12 11 12 12 12 12 13 14 12 12 10 6 11 11 12 13 13 12 12 11 10 10 10 10 11 11 11 11 10 9 8 7
7 6 8 7 6 8 8 8 9 3 3 1 4 4 5 5 8 8 8 8 7 4 7 5 5 5 11 8 9 6 6 7 11 12 12 12 12 10 12 12 13 14 13 14 15 16 14 17 14 16 15 16 16 16 15 15 16 16 16 15 14 14 14 14 13 12 11 11 10 10 11 12 12 12 7 9 7 9 11 12 12 12 12 12 11 10 10 9 9 10 10 10 10 10 8 7 6
7 6 3 8 8 8 9 7 8 5 5 2 1 2 4 5 7 8 7 8 4 7 7 5 8 6 8 8 6 4 7 9 11 13 12 12 11 12 11 12 12 12 13 14 14 14 15 15 16 14 15 15 15 15 14 14 14 14 14 14 14 13 13 13 12 11 11 11 10 10 10 10 11 13 12 8 8 9 11 11 11 11 11 11 11 10 10 9 8 8 8 8 8 6 6 5 3
7 8 7 9 9 8 6 7 2 2 3 3 3 6 4 4 5 7 7 10 8 9 8 10 5 8 8 8 6 8 8 8 11 12 11 10 11 12 11 10 11 12 14 14 14 14 15 15 14 14 14 14 14 14 13 13 13 12 13 13 13 12 12 12 11 12 12 10 10 10 10 11 11 12 12 12 11 11 10 10 10 10 10 12 11 10 10 10 10 9 9 8 7 5 7 5 2
8 7 9 8 8 8 4 6 4 3 4 5 4 6 5 3 5 7 7 8 8 9 9 8 5 8 8 6 7 8 9 8 10 12 12 10 11 11 10 10 11 13 13 13 13 13 15 14 12 13 13 14 13 13 14 14 13 13 13 12 11 11 12 12 12 11 11 11 11 11 11 11 11 11 10 11 10 11 12 10 9 10 9 11 11 10 10 9 9 9 9 9 7 7 7 5 2
9 5 7 9 3 7 7 6 3 5 6 7 4 6 3 5 3 5 4 9 8 8 6 6 6 3 7 8 7 8 8 9 12 13 10 10 9 10 11 10 11 11 12 15 12 13 11 13 12 12 13 12 11 13 14 13 12 12 12 12 12 12 12 12 12 12 11 12 12 12 11 12 11 11 11 10 11 11 11 12 12 11 10 11 11 10 9 9 8 8 8 8 8 8 7 5 1
9 2 6 8 7 7 7 8 6 8 3 4 6 6 4 4 3 1 4 7 6 4 5 2 3 8 4 7 5 9 11 11 11 11 11 11 12 11 11 11 10 9 11 6 10 12 10 12 12 12 13 12 11 9 9 11 12 13 13 13 13 12 12 12 12 12 12 12 13 12 12 12 12 11 11 11 11 9 11 11 11 11 11 11 11 11 10 9 8 8 9 8 8 8 7 6 2
6 5 6 8 9 8 7 8 4 6 5 4 5 5 3 3 3 2 3 7 7 5 7 5 2 4 2 2 8 14 15 13 12 12 12 12 11 11 11 11 9 8 10 11 6 5 6 10 10 10 11 11 9 8 9 10 12 14 14 14 14 13 14 12 10 12 13 13 13 12 11 11 11 10 11 10 11 10 8 9 10 10 10 11 11 11 10 9 9 9 8 8 8 7 7 5 3
5 6 8 8 11 9 5 7 6 8 9 5 3 6 6 3 3 2 1 4 9 8 3 6 5 2 7 9 17 19 16 14 12 14 13 11 11 10 10 9 9 9 4 6 9 9 9 12 12 9 10 12 12 12 11 12 12 15 13 14 15 15 14 14 13 14 13 12 12 10 10 8 8 8 7 8 11 9 10 9 10 10 10 11 11 11 10 10 9 9 8 8 7 7 7 6 4
6 8 8 10 9 9 5 7 6 6 2 5 5 6 7 3 3 5 6 5 6 8 5 7 6 7 7 12 13 17 17 16 14 15 14 12 11 10 10 11 9 5 5 7 8 12 11 11 12 11 11 14 10 10 8 9 11 13 13 12 12 13 13 13 12 11 12 10 11 10 7 6 6 6 6 8 7 8 7 9 10 10 10 11 11 11 10 9 9 9 8 7 6 6 8 7 7
8 8 10 10 9 3 1 1 4 4 5 3 3 4 7 7 5 3 6 7 9 10 7 9 9 10 11 12 14 16 17 16 15 14 15 15 12 13 11 10 11 10 8 7 9 11 10 9 10 11 11 12 10 9 8 8 10 9 10 9 9 13 13 12 10 10 8 9 8 6 5 5 5 5 6 4 9 3 6 8 9 10 9 11 11 10 10 9 9 8 7 6 5 7 9 4 4
10 8 10 11 3 1 3 1 0 2 5 3 3 3 5 5 4 2 5 7 8 10 9 9 9 11 11 13 13 16 15 15 14 14 14 14 13 12 12 13 13 12 12 9 9 8 8 8 9 10 9 10 11 8 7 9 7 7 7 7 6 7 8 8 8 7 7 7 6 4 3 4 4 4 5 10 12 6 6 5 7 9 9 9 11 9 10 9 9 8 7 7 8 8 3 4 3
7 9 10 6 3 7 5 4 2 2 3 5 4 4 3 4 6 4 1 7 7 6 6 6 9 11 13 13 14 15 15 14 14 13 14 14 13 10 10 11 11 12 11 9 8 8 9 9 8 7 7 7 7 7 6 6 6 3 2 2 1 2 5 6 6 5 5 5 5 3 4 4 4 3 4 4 8 4 4 5 7 7 6 6 8 6 6 7 7 7 6 7 4 2 2 1 1
3 12 12 6 2 7 2 3 3 3 2 6 5 6 4 3 4 3 4 8 8 5 5 4 5 12 14 15 14 15 15 15 15 14 13 12 12 10 10 11 11 9 9 8 8 9 9 10 10 8 7 7 7 7 5 8 8 4 2 2 3 5 5 6 5 5 4 5 4 3 3 4 3 3 4 3 3 6 3 3 4 4 5 5 7 5 4 5 5 5 5 4 3 2 2 2 2
8 10 10 6 5 7 1 4 1 3 5 5 5 3 5 4 4 3 5 6 9 4 4 2 4 9 12 13 14 15 15 15 14 14 13 12 11 11 11 10 10 9 8 8 8 8 9 10 9 8 8 8 8 8 6 6 5 4 4 5 6 4 5 5 5 4 4 4 3 3 3 3 3 3 3 3 4 4 4 2 2 3 4 5 4 4 5 5 4 4 4 4 3 2 3 3 4
12 8 9 11 9 10 7 7 3 6 6 6 3 5 8 4 6 2 5 4 5 5 2 2 6 10 12 14 14 15 15 15 13 11 12 12 11 11 12 11 9 8 7 9 8 8 8 10 10 9 9 9 8 7 6 4 4 8 10 7 8 6 5 5 4 4 4 4 3 3 2 3 3 2 2 2 2 1 2 1 1 1 3 3 3 3 4 4 4 4 3 3 4 4 4 3 2
12 13 6 5 6 8 9 9 7 6 8 6 5 7 8 4 4 3 6 2 2 2 2 6 9 11 12 12 13 14 13 13 13 13 11 10 9 10 11 8 8 6 5 4 7 7 9 10 11 11 10 12 9 9 7 6 8 7 5 6 5 6 3 4 4 4 4 4 4 3 3 2 3 3 4 1 3 3 2 2 2 3 3 3 3 4 3 3 4 4 4 4 3 3 3 3 3
14 13 7 8 8 9 9 9 8 10 6 4 8 9 5 2 2 9 4 6 5 5 6 9 10 11 12 12 12 13 13 13 12 13 12 10 10 12 11 11 10 9 7 3 6 8 9 10 11 11 11 10 9 9 8 7 5 5 6 4 5 5 4 3 4 4 3 4 4 3 2 2 1 2 3 4 3 3 2 3 3 3 4 4 4 4 4 4 4 3 4 5 4 4 3 4 3
7 13 10 9 9 8 7 10 9 5 7 5 9 10 5 3 5 7 7 7 7 8 9 9 10 10 10 10 11 11 12 12 12 11 11 11 11 12 12 12 12 11 7 9 8 9 7 10 10 9 9 8 9 8 6 6 5 5 4 4 5 4 5 4 3 2 2 2 3 4 3 2 2 2 2 3 4 3 2 2 4 3 4 4 4 4 4 4 4 4 4 3 2 3 4 4 4
4 4 7 10 10 9 8 9 9 6 9 11 9 9 1 5 6 5 11 9 9 9 10 9 9 10 10 11 11 10 10 11 9 12 14 15 13 13 13 12 13 13 9 10 7 7 9 10 9 9 9 7 7 8 6 6 5 5 4 3 4 5 5 3 3 2 2 2 2 2 2 3 3 3 2 4 3 3 4 4 3 3 2 3 4 5 4 4 4 4 4 3 2 3 3 4 3
4 6 8 10 10 10 12 12 11 7 7 6 6 7 9 9 11 8 9 9 9 9 9 9 9 9 10 10 9 9 11 11 11 11 12 12 11 9 13 13 13 12 9 12 12 11 12 10 8 9 9 9 8 8 6 6 5 5 4 3 4 4 4 3 3 2 2 1 1 1 2 1 3 2 2 1 3 3 3 4 3 4 4 3 4 5 5 5 4 3 4 2 3 3 4 4 5
5 7 8 7 9 11 13 11 7 7 4 4 6 10 11 13 13 9 9 9 10 9 9 9 8 9 9 10 10 10 11 11 11 11 11 11 10 11 12 14 15 13 11 11 14 14 11 8 7 8 9 10 9 8 7 6 5 4 4 4 4 4 3 4 3 3 3 2 2 2 2 1 2 2 3 2 4 3 3 3 2 1 3 3 4 3 6 6 5 5 4 4 4 3 4 3 4
9 8 6 8 8 9 12 10 10 11 7 8 7 10 8 12 15 12 10 11 11 9 9 9 9 8 8 10 10 10 11 10 11 11 11 11 10 10 12 13 14 12 10 12 15 13 13 10 8 8 9 10 10 9 8 6 6 5 5 4 4 4 4 3 3 4 3 3 2 3 3 3 1 4 3 3 3 3 3 3 2 1 0 4 2 4 2 5 1 3 3 5 3 4 3 3 4
8 7 9 9 8 5 11 9 11 13 7 9 9 10 10 4 13 11 10 10 10 8 9 9 8 8 9 9 9 10 10 10 11 11 10 11 11 11 12 12 11 11 10 10 11 12 13 12 11 10 11 11 10 9 8 7 6 5 5 5 5 4 3 4 3 3 3 3 3 3 2 4 4 4 3 2 2 3 3 2 1 2 4 2 6 4 3 1 3 2 5 4 3 4 4 4 3
8 9 8 9 9 8 8 12 9 11 4 9 13 9 8 8 12 11 10 10 10 8 9 9 9 9 9 9 9 9 10 11 11 11 11 10 10 8 10 11 10 11 10 11 12 13 12 12 11 11 12 10 10 9 8 7 7 7 6 5 4 3 3 2 2 2 2 3 3 4 3 3 3 3 3 3 2 3 3 2 4 2 3 3 1 4 2 3 2 3 5 3 3 4 5 4 3
8 10 8 7 9 10 7 11 9 8 9 8 12 12 9 5 6 10 10 10 10 9 9 10 9 8 8 8 10 10 9 10 10 11 11 11 8 10 9 9 10 11 10 12 12 13 12 8 9 10 11 11 9 8 8 7 6 6 6 5 4 3 2 2 2 2 2 3 4 4 4 3 3 3 3 4 2 2 3 2 2 3 2 2 4 3 5 3 6 5 3 2 3 2 5 2 3
8 8 9 7 8 7 8 7 11 8 9 11 10 12 11 9 7 9 9 9 10 9 8 9 9 9 9 8 9 10 9 11 11 11 12 11 10 11 9 9 9 11 9 11 11 10 7 5 5 7 7 9 9 8 9 8 8 6 6 6 5 4 3 3 2 2 2 3 4 5 4 4 4 4 3 2 2 2 1 1 1 1 1 2 2 3 2 3 4 3 3 3 1 3 4 3 3
7 9 8 7 8 10 9 5 7 6 8 10 11 9 10 12 8 9 9 9 9 8 7 7 8 8 9 9 9 8 8 10 10 11 12 11 10 10 10 9 9 10 9 10 10 6 7 5 2 1 5 9 8 9 8 8 7 6 6 5 5 4 4 4 3 3 3 4 4 4 4 3 4 4 4 3 3 2 2 2 2 1 1 2 2 3 2 3 4 4 5 3 3 3 3 3 3
3 3 4 6 7 6 7 2 4 0 6 9 10 11 11 12 10 9 9 9 9 9 10 8 8 8 9 9 9 9 9 10 11 12 13 13 11 10 10 9 9 10 9 11 10 11 10 6 9 8 8 9 9 9 8 7 6 6 5 5 6 5 5 5 4 3 3 4 4 4 4 4 4 4 3 3 3 3 3 2 3 2 2 2 2 2 3 3 3 3 3 2 4 3 3 2 2
7 6 8 7 8 7 7 5 4 3 5 7 9 10 14 7 6 9 9 10 11 11 11 10 9 9 8 10 10 10 9 7 12 11 12 12 10 11 10 10 11 11 11 10 10 9 7 9 8 11 9 8 9 9 8 6 6 5 6 6 6 6 6 5 5 5 4 5 5 4 4 4 4 4 4 3 3 2 2 3 3 3 2 2 2 2 3 3 3 3 3 3 3 4 3 3 3
6 8 7 7 8 7 7 3 3 3 5 8 6 9 9 7 8 9 10 9 8 8 8 9 9 9 8 9 10 10 9 9 10 11 13 12 12 12 11 10 11 11 11 9 7 8 10 9 7 8 6 7 8 8 7 7 6 6 6 7 6 6 5 5 6 6 5 6 4 4 4 3 3 4 4 4 3 3 2 1 2 2 2 2 3 3 3 3 3 3 4 3 3 3 2 2 4
7 9 7 8 5 8 8 7 6 3 5 3 5 9 6 5 6 8 6 8 6 6 7 8 7 8 9 9 10 10 10 10 11 12 13 13 12 12 11 10 10 9 9 9 9 10 7 8 10 10 1 6 8 8 7 8 7 6 7 7 6 5 6 6 7 6 5 5 5 4 4 3 3 4 4 4 4 3 2 2 1 1 1 0 1 2 2 2 2 3 3 4 3 3 3 3 3
10 9 8 9 6 9 7 7 4 4 3 6 6 8 7 8 10 8 6 4 5 6 7 7 7 7 7 8 9 9 10 10 10 12 12 13 13 13 12 10 9 9 8 8 9 9 10 12 10 9 6 4 7 6 7 7 7 7 7 7 7 7 7 6 6 6 5 5 5 5 4 3 3 4 4 4 5 4 3 3 3 2 2 2 1 0 1 2 2 2 2 2 2 2 3 3 3
9 12 11 7 2 4 3 4 6 7 6 7 9 8 8 9 11 10 9 7 8 8 9 9 9 9 9 10 10 10 9 9 11 12 13 13 12 11 11 11 10 10 10 8 8 14 16 12 14 12 6 5 4 6 5 6 6 7 8 8 7 7 6 6 6 6 6 5 6 5 5 4 3 3 4 5 5 5 5 4 3 2 3 3 3 2 2 1 1 2 3 2 2 2 3 2 3
8 11 14 11 7 5 4 4 6 7 8 8 3 8 6 8 10 10 9 10 10 8 9 9 10 9 9 8 8 10 11 10 9 9 10 12 12 11 11 11 11 10 10 8 7 13 14 12 11 11 9 8 9 9 10 7 7 7 9 8 7 7 7 5 5 5 5 5 5 6 6 4 3 4 4 5 5 5 4 4 4 4 4 4 4 4 4 3 2 2 0 1 1 2 3 3 3
7 7 11 10 9 7 7 7 7 4 5 4 6 7 6 10 9 8 9 10 10 10 9 9 9 9 10 9 9 9 9 10 9 9 9 10 11 10 10 10 9 8 6 5 6 9 11 11 10 7 9 8 9 10 9 8 8 8 8 7 7 7 6 7 7 6 5 5 6 6 5 5 4 4 4 5 5 5 4 4 4 4 3 3 3 4 4 3 2 2 2 2 1 1 1 2 2
4 4 3 8 8 7 7 8 7 3 4 7 8 6 6 8 8 6 8 10 11 11 10 10 9 9 9 9 8 8 8 9 10 9 9 8 8 6 7 7 6 5 5 6 7 8 8 8 7 7 9 9 8 11 10 10 8 8 6 6 6 6 8 8 7 7 6 6 6 5 4 5 5 4 5 5 5 5 4 5 4 4 4 4 4 3 4 4 4 3 3 2 2 1 1 2 2
5 4 3 3 3 3 6 7 7 5 7 8 8 5 8 7 8 7 8 8 10 9 9 9 9 9 8 7 8 8 8 8 9 9 9 8 12 11 8 2 6 6 6 7 6 5 5 3 4 5 8 6 9 10 10 10 9 8 6 6 8 8 8 8 7 7 7 6 7 6 5 5 5 5 5 5 5 6 5 4 5 5 5 5 4 4 4 4 4 5 5 4 4 3 2 2 2
2 6 8 7 6 6 6 5 6 5 7 9 7 4 6 6 10 10 9 4 4 5 5 4 3 3 5 6 7 7 8 8 8 8 9 14 13 12 15 11 9 7 5 6 6 7 9 9 9 8 6 4 2 7 8 9 8 8 7 7 8 9 10 9 8 8 7 6 6 6 6 6 5 6 5 5 5 5 5 5 5 5 5 5 5 5 5 5 5 5 5 6 6 4 3 3 3
7 8 9 8 6 5 7 6 6 7 8 6 6 4 6 7 8 5 7 5 4 2 4 3 2 2 2 3 6 7 7 7 7 8 15 13 11 11 7 8 9 9 7 9 13 10 9 10 10 5 3 7 9 10 5 6 6 7 7 7 8 8 9 8 9 9 8 7 7 7 6 6 6 5 5 5 5 5 5 5 5 5 6 5 5 5 5 5 5 5 6 5 5 6 5 3 3
8 8 9 9 7 5 7 8 8 9 7 4 4 4 8 10 5 8 9 7 4 3 3 2 2 2 1 2 3 5 6 7 8 9 13 11 11 12 9 11 11 9 11 12 11 8 7 9 11 9 5 8 7 6 7 8 4 6 7 7 7 7 7 8 9 9 8 7 7 7 7 6 6 5 5 6 5 6 5 5 5 5 5 5 5 5 5 6 5 5 6 6 6 7 6 6 6
11 10 9 9 8 7 7 9 6 9 6 3 3 1 9 3 7 5 7 6 4 4 3 3 3 3 2 0 3 5 5 7 7 10 13 11 9 8 9 10 12 13 13 12 10 9 6 7 8 8 7 4 6 9 4 5 8 5 6 6 7 6 6 7 7 8 7 7 7 7 7 6 6 5 5 5 6 6 6 6 6 6 6 6 6 6 5 5 5 5 6 6 6 6 6 6 7
11 11 10 9 7 7 6 8 7 7 5 7 4 5 6 11 3 6 6 4 5 5 4 4 3 3 3 2 3 5 6 5 6 9 12 10 9 10 10 11 12 11 12 11 9 9 9 9 10 11 11 10 6 7 8 8 10 6 5 5 6 6 6 6 6 7 7 8 7 7 7 6 6 6 5 5 6 7 7 6 6 6 6 5 5 4 4 5 4 5 6 6 6 6 6 6 6
9 5 6 7 7 3 7 2 5 4 5 6 7 3 1 1 4 4 3 4 6 6 7 6 7 6 6 6 6 6 6 6 6 10 10 8 9 10 12 11 12 8 8 10 13 11 10 11 13 13 14 13 12 10 9 11 10 7 7 7 6 6 6 5 6 6 7 7 7 7 8 7 6 6 6 6 6 6 7 7 7 6 6 6 5 5 4 5 4 5 5 5 5 4 5 6 5
8 9 10 5 3 6 1 2 4 0 2 5 4 6 5 5 5 5 3 5 7 7 8 8 8 8 7 7 7 7 6 7 8 10 9 9 9 10 14 14 13 14 12 9 11 12 13 11 11 11 10 10 11 12 12 11 9 7 6 6 6 7 7 7 6 7 8 8 7 7 7 7 7 6 6 5 6 6 6 6 7 6 6 5 5 5 5 5 4 5 5 5 6 6 6 6 5
6 10 8 5 1 4 4 5 3 5 7 4 5 7 8 7 5 5 3 4 6 7 8 9 8 8 9 8 7 7 7 8 7 9 10 12 12 12 10 8 7 9 9 9 12 12 12 10 11 11 9 10 9 9 8 7 7 6 6 6 7 7 7 7 7 7 6 7 7 7 7 8 7 7 7 6 6 6 6 6 6 6 6 5 5 5 5 5 5 5 5 5 5 5 5 5 5
5 6 8 10 6 9 8 4 5 7 7 5 5 8 8 9 4 7 7 5 5 6 7 8 9 9 9 9 9 9 9 9 9 10 10 10 11 12 10 10 6 4 3 5 6 5 5 5 6 7 7 7 7 5 5 4 5 4 4 6 6 6 7 7 7 7 7 7 8 8 7 7 8 8 8 8 7 7 6 6 6 6 6 6 6 5 5 5 5 5 5 5 4 4 5 5 4
3 1 7 3 4 8 6 6 6 6 6 6 4 8 6 8 5 10 10 7 6 6 6 7 8 8 7 7 9 9 9 9 9 10 10 11 11 11 9 8 8 7 5 4 6 4 3 4 7 6 6 6 6 6 6 6 5 4 4 5 5 5 7 8 8 8 7 7 7 7 7 5 6 7 9 9 8 8 7 7 6 6 6 6 6 5 5 5 4 4 4 4 4 4 5 5 4
9 9 9 5 6 3 5 2 8 7 6 6 6 6 6 5 5 6 9 7 6 5 6 6 7 8 7 8 8 8 7 6 8 9 11 11 10 11 10 9 8 7 8 9 7 6 4 0 4 7 7 7 7 7 6 5 4 4 5 6 6 6 7 8 9 8 8 6 6 8 8 7 6 6 8 9 9 8 8 7 7 7 7 6 6 5 4 4 5 5 4 4 4 3 4 5 4
9 12 11 10 9 9 10 9 5 8 8 5 6 7 3 5 4 3 3 4 4 4 7 7 8 8 8 6 7 7 5 6 7 7 10 10 10 9 8 7 7 8 8 8 5 5 7 5 3 5 4 4 5 6 6 6 5 5 6 6 7 6 7 7 9 9 8 7 7 7 8 7 7 6 7 8 10 8 8 8 8 7 7 7 6 6 5 4 5 5 4 3 3 3 4 4 2
Wind_Direction
249 218 249 243 244 230 198 208 228 180 230 233 243 206 187 136 36 244 250 251 207 81 327 270 222 188 224 352 300 355 36 317 5 276 25 84 166 145 142 140 142 145 143 138 141 145 146 139 141 140 137 135 132 127 126 125 123 115 118 117 119 119 121 126 130 129 131 131 130 128 126 126 127 127 130 133 130 129 125 126 130 134 132 128 128 127 123 126 128 128 128 127 123 120 116 112 109
192 201 224 224 220 201 195 209 269 185 212 245 235 245 123 118 199 98 1 30 20 70 66 106 154 215 310 331 316 238 86 48 40 76 100 107 155 126 133 148 148 144 144 137 142 146 146 144 142 139 136 135 133 130 129 127 125 120 119 117 118 120 125 128 130 131 130 130 130 129 128 129 130 132 135 137 134 133 137 130 130 127 124 128 130 131 133 131 134 136 133 129 125 121 117 116 117
176 203 181 207 215 236 67 216 237 226 218 223 231 218 109 197 191 81 49 67 82 110 128 98 117 137 196 256 195 272 98 75 84 74 100 139 134 137 147 145 143 143 140 138 146 145 146 147 143 139 136 135 134 134 132 130 128 125 123 123 123 125 128 130 130 130 130 130 132 132 132 133 135 138 138 137 136 142 139 135 134 130 131 132 133 135 136 137 135 136 133 132 129 123 118 117 116
224 236 202 194 177 231 206 204 251 254 227 238 244 122 199 206 134 64 55 74 117 192 186 137 219 56 291 200 36 212 91 95 43 107 121 164 140 149 143 143 134 141 144 144 150 150 151 143 141 138 135 134 134 136 136 134 135 132 129 128 129 129 131 132 132 132 133 135 138 137 138 140 141 141 141 138 133 130 126 124 126 134 133 132 136 136 131 130 135 137 136 135 133 124 121 122 116
212 182 251 223 242 201 221 216 241 241 243 219 238 86 148 212 94 349 37 353 256 235 244 98 169 81 16 23 63 298 84 80 85 107 123 99 128 144 145 143 141 143 148 147 149 148 145 141 138 136 135 135 137 136 136 134 136 133 131 132 132 134 135 137 137 139 141 143 143 143 143 142 142 141 140 136 127 122 116 115 111 101 104 115 124 126 131 138 139 142 144 139 133 127 128 125 116
198 187 206 252 237 358 253 223 221 234 244 313 259 104 102 63 333 337 324 263 278 253 242 235 282 159 175 71 14 25 18 187 101 110 129 129 132 135 144 145 143 146 151 148 147 150 141 134 137 135 136 137 136 134 134 134 136 138 135 135 138 140 141 143 143 144 143 142 143 144 142 143 145 146 142 129 117 115 113 106 102 112 118 114 117 132 138 141 141 142 142 140 133 128 130 123 114
162 184 182 219 247 223 234 231 230 228 211 253 321 130 14 1 331 303 281 275 194 246 192 220 224 186 188 122 108 66 60 274 216 122 128 137 136 144 148 149 148 146 147 149 149 141 138 132 135 136 137 136 136 137 137 137 140 139 140 141 142 144 144 143 142 143 144 145 144 143 143 145 145 141 133 129 116 108 115 112 112 116 120 117 125 133 133 135 142 139 134 137 131 128 121 118 114
248 233 172 202 194 209 227 239 249 235 108 302 31 298 325 343 312 272 275 268 147 225 178 219 209 239 80 181 138 117 98 72 84 106 123 137 139 143 151 152 147 145 148 147 142 136 126 132 135 137 137 137 139 139 142 144 144 144 144 142 143 144 144 142 142 146 147 146 146 145 143 142 131 139 124 106 118 122 124 121 121 118 115 124 128 122 124 130 114 121 130 128 127 130 128 121 121
182 245 131 245 228 204 239 238 245 237 300 250 246 245 314 294 300 284 260 237 268 252 194 198 188 228 127 134 94 119 86 88 117 117 128 130 136 143 152 151 147 145 147 147 135 131 137 135 139 139 138 138 140 141 143 143 143 143 141 142 144 143 143 145 146 146 143 144 143 140 138 133 135 136 132 133 127 138 128 124 119 121 120 113 109 112 116 123 126 128 131 130 133 129 125 122 125
185 246 177 237 240 222 232 231 235 211 258 8 308 342 330 320 278 275 267 245 231 230 201 192 187 242 132 126 121 132 97 111 125 129 132 134 136 144 148 151 148 144 146 140 137 137 136 139 138 137 139 140 141 142 144 145 146 144 140 142 144 143 143 145 143 141 140 140 138 136 133 133 133 121 105 115 126 131 131 123 121 119 114 112 107 109 112 119 125 133 133 131 130 130 131 131 128
190 213 288 230 221 239 229 229 226 168 208 155 219 46 337 298 282 271 252 258 227 217 147 181 185 178 166 113 82 79 124 136 145 132 135 135 140 146 147 147 145 144 137 134 132 134 137 142 137 139 138 140 142 142 141 142 143 141 141 142 142 142 142 140 140 135 133 137 130 129 123 120 124 125 126 131 143 137 128 126 123 121 115 110 106 105 109 115 122 124 122 124 119 119 119 95 95
214 205 187 225 229 231 224 256 200 236 202 229 179 20 9 309 282 262 236 231 207 197 180 186 162 173 152 138 122 120 129 150 139 131 133 138 146 144 144 142 140 140 131 123 128 138 142 139 147 140 140 137 137 138 138 137 137 137 138 139 140 140 136 135 131 128 130 125 123 119 118 117 115 117 132 138 128 123 127 117 119 117 113 110 109 109 109 110 115 112 104 103 104 87 79 77 36
243 198 207 238 236 233 262 269 248 311 269 181 12 13 340 288 275 299 263 242 204 189 174 192 104 187 156 142 112 125 137 140 133 131 141 157 143 144 141 137 137 138 136 133 124 132 140 145 141 149 136 132 134 135 133 133 133 136 137 136 134 130 130 129 127 125 123 120 117 112 112 116 118 124 119 114 115 116 114 117 121 116 117 113 111 114 110 114 115 116 113 113 112 97 87 77 347
240 219 230 234 246 263 249 249 264 239 205 97 57 342 17 339 350 306 258 217 184 189 123 130 177 198 126 117 143 146 134 133 144 142 144 141 138 140 134 145 142 137 148 146 151 135 139 149 149 145 145 145 143 136 131 130 131 133 129 128 128 129 130 126 123 121 122 121 118 118 122 126 125 118 117 117 120 115 120 127 126 125 128 116 120 118 114 112 112 110 114 116 114 115 115 118 49
238 252 253 258 249 235 232 244 226 224 122 106 51 336 323 51 283 288 221 182 124 62 114 114 48 223 134 211 145 161 142 140 137 142 139 134 139 139 138 141 136 162 140 116 99 117 156 148 150 151 154 151 138 140 142 127 131 135 128 129 134 133 125 123 121 123 123 126 130 131 133 129 123 123 121 123 119 121 116 121 124 129 125 128 123 119 116 110 109 114 120 119 118 117 121 121 110
247 240 236 244 240 236 194 228 245 254 126 93 49 341 286 85 20 254 87 324 119 134 183 143 33 34 261 65 147 132 135 140 139 141 138 134 135 136 134 134 142 114 43 73 94 123 146 153 156 156 155 138 121 127 130 140 149 138 135 135 130 120 120 125 148 128 131 135 134 136 133 130 134 131 130 128 125 120 139 128 127 135 135 128 125 123 122 120 116 114 111 114 113 116 118 118 112
235 258 231 234 242 220 174 223 185 226 107 96 64 16 344 59 45 69 333 212 148 140 133 69 93 22 52 75 102 125 137 137 139 138 138 133 133 138 143 137 129 82 131 132 161 160 177 164 160 158 147 139 154 150 151 155 150 140 135 133 133 136 141 145 142 132 136 138 143 138 150 149 139 133 151 136 136 134 110 126 146 144 136 129 129 131 132 128 123 120 115 110 121 127 132 127 110
207 214 232 230 237 227 206 222 207 38 157 74 41 13 342 34 47 85 170 145 132 143 123 123 94 78 92 105 122 132 137 138 143 144 144 147 148 153 155 147 125 122 151 161 171 156 162 159 164 157 159 150 143 149 151 149 147 147 139 142 142 138 142 143 148 148 151 145 143 153 152 145 146 148 150 139 135 123 140 154 152 146 135 134 138 142 139 135 131 124 124 126 133 170 185 174 155
208 218 228 240 226 222 338 258 360 260 51 353 39 21 337 37 315 121 227 135 156 167 142 148 106 107 111 118 131 139 139 140 147 150 153 156 159 158 155 153 142 151 160 157 157 152 156 156 156 160 160 147 143 144 150 145 151 141 140 138 146 147 148 158 154 153 150 148 161 153 142 143 147 144 136 162 94 45 168 169 151 136 138 141 145 143 143 139 135 133 134 148 176 206 212 189 187
217 245 227 236 278 290 237 307 304 304 351 329 340 26 324 25 340 85 247 146 170 171 149 161 149 130 136 133 146 144 143 146 154 155 159 158 160 162 159 151 151 156 159 161 153 146 145 146 149 154 152 149 159 156 140 151 156 119 137 151 154 151 152 157 152 148 150 150 145 136 130 134 135 138 119 111 115 171 192 162 128 134 150 152 146 148 145 142 139 144 155 178 212 210 186 188 178
181 229 235 246 188 235 215 201 235 301 323 315 315 326 262 30 353 286 112 176 189 156 134 157 155 142 141 150 152 153 150 154 160 163 164 162 159 161 162 154 156 160 158 156 145 145 144 138 128 134 144 144 138 121 98 74 57 18 103 85 46 231 151 146 142 140 142 143 144 144 143 144 151 145 134 158 120 207 214 158 163 168 165 161 182 178 173 158 178 173 171 205 204 196 169 117 214
203 225 238 279 211 243 137 196 105 286 320 296 294 273 17 333 265 312 250 210 154 114 71 72 133 156 151 154 162 160 158 162 165 169 166 158 152 157 156 151 150 154 147 148 144 146 145 141 145 158 141 114 79 74 119 126 141 169 197 136 183 185 157 144 143 148 144 144 146 144 145 148 154 162 149 136 157 178 235 183 179 166 180 167 190 194 183 180 199 180 189 188 189 200 137 163 156
226 213 238 227 238 252 190 240 200 285 272 269 279 349 315 269 283 271 282 278 61 40 38 72 161 149 148 152 163 164 163 168 168 168 158 149 153 153 161 143 147 147 155 148 146 146 148 143 143 146 143 130 121 123 142 138 157 151 187 187 162 199 148 148 147 144 143 145 146 150 159 157 150 180 148 223 191 169 197 218 193 173 186 185 189 204 190 193 203 195 188 183 186 192 196 169 191
235 241 199 220 234 239 249 256 236 253 264 270 308 310 279 272 251 84 270 288 18 18 338 193 151 145 148 159 170 169 171 170 167 153 151 152 158 154 152 145 138 139 154 147 143 142 149 142 148 153 141 139 135 142 138 126 130 176 201 163 187 153 155 146 134 138 134 152 158 162 174 168 153 154 201 140 245 174 193 174 231 173 209 197 186 218 197 203 202 204 185 189 195 192 197 213 195
220 239 191 220 211 233 247 251 252 258 256 267 267 270 259 258 289 254 245 194 66 74 140 151 147 148 153 162 170 169 170 166 157 154 149 157 150 150 154 137 114 67 87 102 138 154 157 152 152 151 151 151 153 143 138 145 200 182 165 175 138 152 145 136 130 138 165 153 163 171 166 157 167 183 141 188 234 221 189 194 204 194 199 195 191 225 215 206 214 202 185 199 204 208 197 194 209
227 235 228 222 225 235 235 243 246 247 251 226 249 247 241 264 274 250 198 130 120 123 143 149 151 154 161 163 169 169 168 159 151 154 153 155 152 155 150 135 127 111 148 172 171 169 160 162 162 156 157 151 145 143 152 181 175 180 172 161 132 149 124 120 143 164 172 168 155 160 155 149 230 184 134 202 220 219 199 192 216 204 200 187 190 212 217 218 218 209 201 205 200 210 200 176 199
200 226 229 237 238 239 233 247 243 237 252 210 244 244 186 145 216 206 139 135 141 145 144 153 159 158 158 160 164 169 166 158 154 145 147 157 159 163 148 138 144 151 174 168 190 176 160 170 163 160 150 141 140 142 155 157 177 192 165 158 148 141 129 152 169 161 172 176 150 147 153 144 159 203 173 178 218 217 213 208 213 196 202 190 198 211 213 223 222 221 219 206 210 220 200 192 200
228 240 226 236 242 235 240 240 247 232 236 217 234 247 186 190 207 240 129 133 151 151 149 159 164 157 159 161 165 167 158 128 138 148 156 162 171 172 155 157 152 155 175 187 195 173 174 174 162 163 144 141 138 139 151 155 187 185 165 158 141 118 137 154 153 175 167 154 117 132 156 178 192 107 258 209 211 213 220 213 200 209 206 199 196 212 215 226 220 219 214 201 205 225 205 203 186
227 222 228 222 223 233 222 231 231 199 228 185 204 234 216 185 221 190 129 140 154 154 156 159 165 159 158 163 154 147 145 149 149 157 161 175 172 166 169 161 160 157 212 171 173 174 175 174 166 164 152 150 155 152 154 173 183 176 168 154 133 129 148 153 161 169 177 133 116 187 224 177 162 105 207 138 221 217 236 229 215 200 206 206 195 215 218 224 224 215 209 209 201 209 221 199 196
224 220 248 226 218 231 215 213 209 211 193 168 177 237 224 203 214 154 145 155 155 160 161 163 159 165 160 161 150 156 152 155 160 165 171 181 170 174 174 176 177 183 174 170 177 176 175 171 169 165 161 162 159 152 160 174 175 166 162 154 137 146 157 162 163 184 170 181 173 186 209 155 179 175 157 167 227 212 231 235 240 232 246 201 200 194 215 212 206 207 214 194 206 231 216 208 195
215 202 224 246 232 229 184 192 190 219 141 195 205 248 236 205 185 152 158 164 171 169 164 162 159 164 162 163 161 158 153 155 167 165 171 177 170 180 193 194 191 197 170 177 184 177 175 173 171 168 164 162 162 158 171 167 165 160 160 152 150 157 155 167 170 177 188 176 161 150 160 119 302 157 164 204 224 231 221 224 205 256 292 247 225 212 247 240 59 266 244 226 198 224 227 203 215
212 198 218 218 238 201 151 184 185 216 151 199 208 242 248 202 141 147 160 169 181 181 169 161 159 162 165 166 171 151 156 154 162 171 171 178 177 191 198 195 192 191 187 172 178 182 180 179 175 167 167 161 167 160 164 157 156 160 147 143 146 155 162 165 165 166 164 148 142 115 134 123 148 103 114 161 204 230 240 160 76 236 221 93 250 210 222 2 238 241 261 255 241 232 224 202 219
202 230 218 208 205 227 177 179 195 230 124 180 218 239 213 223 130 152 165 173 184 187 174 162 158 162 166 171 172 149 147 154 164 169 177 189 199 193 190 192 191 191 190 182 182 185 184 180 180 168 161 165 159 157 154 155 155 148 141 135 131 151 165 153 148 134 139 126 118 123 134 126 130 141 159 163 182 216 228 199 168 221 216 208 271 260 230 218 349 238 241 248 265 246 227 216 190
197 206 238 215 208 210 232 134 197 188 217 194 206 238 251 87 144 153 169 181 186 193 179 162 161 161 169 176 177 163 164 163 173 177 186 201 197 197 187 187 192 193 195 193 190 188 189 171 176 165 164 163 150 146 149 147 137 127 128 124 138 143 130 111 110 131 123 123 121 113 135 139 150 151 157 148 174 205 223 242 160 183 222 233 221 178 242 202 216 239 232 238 255 322 320 263 205
195 187 218 197 228 236 231 191 153 185 190 236 197 227 239 234 142 163 169 186 194 193 180 165 161 164 167 181 191 190 183 186 189 191 194 200 202 191 186 186 192 196 188 191 187 192 155 164 189 141 161 143 136 140 134 124 119 121 124 133 135 141 135 104 116 116 98 104 111 118 121 120 124 134 143 142 180 196 176 222 238 133 172 231 247 242 236 252 247 244 262 226 324 240 234 248 240
212 199 210 220 202 196 224 167 111 224 201 214 219 221 220 230 188 162 168 180 193 189 171 165 163 165 171 185 190 192 188 194 189 189 191 192 195 186 186 182 192 191 184 187 178 114 80 118 87 207 185 139 140 132 132 133 133 139 141 143 146 140 133 125 120 110 114 98 95 100 105 114 117 132 141 142 149 151 149 157 159 169 166 224 210 241 237 233 232 236 233 233 212 218 229 219 197
357 223 245 224 228 194 197 133 101 145 250 234 228 225 235 231 188 168 164 174 192 194 179 174 170 169 176 187 191 191 191 182 178 182 183 185 188 185 188 184 195 188 194 183 168 155 150 186 155 189 166 157 141 135 140 144 145 148 151 151 142 141 131 123 118 104 97 89 97 106 104 97 105 106 103 119 132 140 140 145 149 152 177 191 204 218 216 234 251 254 238 218 225 231 201 217 176
234 224 223 210 214 225 183 145 134 161 248 223 214 231 228 217 156 163 166 180 193 195 187 179 172 170 174 186 193 190 181 162 166 172 176 184 181 182 188 189 189 192 191 185 185 138 155 193 171 158 174 159 144 141 142 157 155 151 159 153 147 141 138 144 126 120 103 100 98 94 104 108 111 108 98 86 83 95 121 145 144 141 166 179 188 205 195 196 225 236 240 220 219 229 211 199 176
226 235 212 233 201 224 96 144 156 159 225 246 185 220 214 167 194 163 176 186 190 194 196 186 175 170 178 185 191 188 173 160 170 179 180 184 183 182 185 196 195 198 193 180 166 142 159 201 167 163 160 146 142 147 157 157 160 155 163 148 152 135 119 113 114 105 119 114 101 101 99 113 123 115 112 103 96 79 74 88 114 138 166 182 190 185 184 193 189 200 210 223 209 214 235 183 189
225 213 229 214 178 199 178 157 171 157 238 298 185 217 146 146 167 164 177 188 180 189 200 191 185 179 184 186 187 188 184 176 185 187 187 185 184 183 188 193 197 193 192 186 155 190 126 69 26 355 68 149 156 158 171 156 146 142 137 141 128 125 119 107 108 120 115 119 108 93 94 97 100 107 106 111 98 84 64 60 76 93 109 153 240 185 170 197 196 173 196 210 231 204 212 186 218
218 235 222 218 164 211 305 129 147 142 177 248 225 205 170 170 167 169 173 176 176 200 206 207 186 184 185 184 186 189 189 184 187 187 189 190 184 186 187 189 189 193 195 193 162 142 109 128 140 175 216 194 165 150 162 149 141 126 116 110 104 104 120 131 137 135 131 114 112 110 99 91 106 99 94 84 89 93 74 58 51 62 54 46 348 58 126 140 163 164 174 204 216 264 204 200 192
199 215 238 254 176 245 180 136 188 206 187 188 224 188 189 166 178 179 160 178 197 184 204 205 195 187 181 187 186 185 192 190 193 192 193 193 193 180 182 182 188 189 194 196 160 127 141 160 169 179 159 79 56 141 137 163 154 145 144 146 148 149 141 152 148 142 146 137 109 114 106 94 88 92 99 88 80 81 80 76 65 75 76 59 43 32 64 92 185 194 183 212 191 217 285 220 194
205 189 213 229 239 226 260 208 219 213 221 150 224 247 160 160 178 170 169 186 190 181 206 197 194 196 193 187 189 184 189 190 199 197 196 195 195 189 182 188 192 195 193 183 161 153 153 167 176 172 129 126 113 148 164 165 155 160 159 159 155 152 146 136 121 126 121 116 119 116 109 97 92 102 86 89 84 76 74 75 79 80 87 88 77 62 55 40 22 13 21 237 242 193 230 235 218
204 101 195 206 214 220 221 236 236 243 54 115 241 250 210 176 165 160 165 185 189 189 198 204 197 195 198 194 189 182 185 190 193 204 196 201 195 195 186 194 192 197 169 153 149 163 163 174 180 151 129 150 149 160 169 163 159 164 167 163 155 154 141 130 136 129 122 123 122 124 123 115 103 94 99 87 89 84 75 82 83 71 63 70 74 76 65 54 32 47 8 358 352 307 213 267 238
88 114 185 201 210 212 218 224 223 260 230 199 203 220 234 192 124 142 173 184 190 190 190 194 198 200 202 200 194 188 187 184 192 193 200 189 190 189 184 187 188 169 158 169 171 171 169 171 172 145 151 157 169 157 163 169 163 165 173 156 149 131 133 141 141 140 135 129 126 115 93 100 100 77 77 84 72 73 72 70 67 62 47 35 59 63 64 53 45 24 39 25 44 51 343 351 309
113 139 142 136 187 212 227 222 227 183 222 213 195 213 238 176 143 165 186 195 178 179 176 180 189 198 202 200 197 197 191 185 184 196 181 146 83 52 19 328 155 140 172 170 167 149 134 147 155 149 150 160 175 164 168 168 161 162 167 162 144 139 143 143 144 139 138 141 129 125 122 116 114 109 89 71 72 69 54 51 60 50 40 45 39 46 52 67 54 58 53 43 33 45 39 36 6
85 185 186 173 191 190 203 247 238 212 229 226 172 179 256 211 165 176 179 146 82 127 146 126 137 198 213 213 204 195 195 187 183 184 121 111 133 151 156 176 160 165 161 159 109 77 54 32 18 30 26 20 177 176 174 175 163 167 168 162 152 148 145 144 141 142 139 141 132 127 120 113 109 108 104 87 74 72 67 58 52 55 55 41 35 48 49 58 68 67 66 61 54 51 70 79 79
203 193 198 187 185 184 213 204 210 230 226 167 132 211 227 238 165 144 84 95 86 56 112 122 148 142 206 221 218 200 192 187 180 156 109 121 137 175 172 137 137 148 144 88 74 87 95 93 96 80 25 40 12 6 278 203 176 166 165 165 158 155 150 148 144 141 144 137 132 127 122 122 119 114 109 97 83 77 80 78 73 67 57 50 56 61 53 60 54 58 54 47 50 49 52 61 83
217 209 206 206 191 200 209 190 212 220 235 113 126 197 216 228 41 107 109 87 81 51 15 14 328 309 296 222 225 208 187 183 177 162 129 132 167 186 169 130 137 129 92 104 127 120 133 144 149 146 157 152 148 101 327 299 226 176 164 167 158 157 153 144 140 142 141 137 137 133 132 126 128 124 111 103 90 88 85 78 68 66 71 65 56 58 65 48 55 61 55 60 48 39 42 42 59
202 209 203 213 208 201 221 207 217 223 129 106 165 188 235 218 127 72 84 70 60 61 55 33 355 333 333 325 195 184 181 180 170 152 129 146 174 176 157 154 136 120 134 144 150 158 152 124 123 134 150 161 162 142 169 283 276 203 170 170 154 155 148 144 142 140 142 134 134 135 133 130 125 120 115 104 108 101 90 84 80 76 73 75 72 67 57 51 33 66 66 53 53 50 47 52 55
203 211 212 219 237 221 209 229 215 226 232 137 126 203 214 209 99 72 56 63 67 75 80 76 62 63 86 122 123 138 156 155 169 138 133 150 172 156 144 144 131 142 140 150 156 156 148 146 158 164 162 174 183 166 166 205 231 214 180 168 156 149 148 148 144 140 140 137 134 133 128 129 129 128 118 112 110 104 101 92 86 84 80 76 78 74 77 73 56 65 69 61 58 52 54 55 53
203 233 247 231 240 229 255 350 310 253 197 165 170 227 355 257 116 77 84 84 76 86 88 97 91 88 91 103 111 114 118 129 127 100 120 164 166 146 128 119 132 128 166 172 163 153 159 166 176 176 172 168 164 168 190 205 217 200 183 170 157 144 145 146 143 146 143 138 134 133 130 131 130 129 123 124 120 115 110 109 101 92 88 85 82 83 76 75 70 75 78 74 69 66 69 61 69
159 208 213 229 347 249 152 174 98 234 263 238 150 206 174 102 177 121 121 107 86 82 84 86 85 87 92 93 103 115 117 129 143 143 149 159 135 122 131 145 147 170 186 180 152 165 170 172 170 170 162 165 169 177 188 197 198 190 180 165 161 154 152 153 155 157 149 143 142 137 134 130 134 137 134 134 132 124 122 114 109 104 98 91 89 89 89 88 83 78 81 81 74 68 66 64 59
159 214 207 93 29 313 241 242 162 231 232 208 179 213 198 187 184 148 126 106 77 72 77 82 86 89 84 86 96 103 113 115 116 122 121 106 96 108 117 125 161 176 186 174 171 173 170 171 168 161 161 160 172 178 185 187 185 181 173 173 172 162 151 148 153 160 158 156 150 144 140 143 147 142 142 143 138 133 128 128 120 115 105 99 95 89 88 93 93 86 83 80 78 81 81 76 71
258 277 136 205 180 210 197 252 212 220 220 223 196 208 223 213 160 161 161 140 101 91 89 98 91 86 86 90 94 101 110 114 118 117 110 102 101 101 114 138 177 168 179 195 174 176 169 146 146 152 156 169 165 169 176 179 183 175 179 184 174 160 149 149 157 164 172 179 158 147 149 148 148 150 148 147 149 143 141 136 132 126 122 116 110 106 106 97 94 100 101 97 95 80 75 78 75
215 262 196 226 255 227 203 207 246 239 228 230 199 201 228 216 130 176 141 128 125 113 113 96 90 88 87 97 107 114 112 109 112 119 117 112 108 111 132 144 157 168 159 240 236 164 199 161 137 142 148 157 160 158 167 180 185 180 173 171 177 176 165 157 161 172 181 185 160 144 140 150 166 162 150 153 151 147 144 142 139 132 132 126 121 117 110 108 105 105 111 102 102 111 101 96 98
187 211 214 188 227 19 290 187 242 236 245 223 227 217 216 87 39 73 110 113 131 141 127 118 108 100 97 107 116 118 111 107 110 111 107 106 110 121 134 153 163 173 191 205 204 169 149 252 119 138 149 156 162 148 160 167 168 179 181 183 183 184 176 164 161 175 184 176 161 157 159 168 176 180 157 153 152 150 145 143 142 143 137 135 129 129 127 125 114 110 99 100 112 106 110 101 101
229 210 219 213 207 208 215 228 189 242 245 238 235 235 129 72 38 39 69 92 130 135 133 123 116 113 102 111 116 117 111 96 94 98 104 110 114 121 134 159 171 173 189 206 211 153 123 148 142 131 153 171 148 137 151 159 170 185 193 193 190 188 181 174 163 171 182 169 167 171 167 171 177 166 168 157 153 148 146 147 143 140 142 139 141 133 142 135 127 123 112 107 110 104 89 97 105